Location: Lane
(33.5226°N, 79.8788°W)
Time: 18:30:19
(UTC+00:00)

Vanguard 1 Rocket - Pass Details

Date: 07 October 2022
Orbit: 656 x 4218 km, 34.3° (Epoch: 01 December)

Event Time Altitude Azimuth Distance (km) Brightness Sun altitude
Rises 22:48:02 0° 236° (SW) 8,353 13.6 0.8°
Reaches altitude 10° 22:53:47 10° 234° (SW) 7,416 13.2 -0.4°
Maximum altitude 23:19:39 71° 156° (SSE) 3,668 10.4 -5.8°
Drops below altitude 10° 23:35:51 10° 77° (ENE) 5,006 10.5 -9.2°
Enters shadow 23:36:09 - 77° (ENE) 5,068 10.5 -9.2°
